TimeCST,TemperatureF,Dew PointF,Humidity,Sea Level PressureIn,VisibilityMPH,Wind Direction,Wind SpeedMPH,Gust SpeedMPH,PrecipitationIn,Events,Conditions,WindDirDegrees,DateUTC
12:54 AM,27.0,24.1,89,30.15,6.0,South,6.9,-,N/A,,Clear,190,2013-01-08 06:54:00
1:54 AM,27.0,24.1,89,30.15,6.0,South,5.8,-,N/A,,Clear,180,2013-01-08 07:54:00
2:54 AM,28.0,24.1,85,30.15,6.0,South,6.9,-,N/A,,Clear,190,2013-01-08 08:54:00
3:54 AM,28.0,24.1,85,30.15,7.0,South,6.9,-,N/A,,Clear,180,2013-01-08 09:54:00
4:54 AM,27.0,23.0,85,30.15,7.0,South,5.8,-,N/A,,Clear,180,2013-01-08 10:54:00
5:54 AM,27.0,23.0,85,30.15,6.0,South,6.9,-,N/A,,Clear,180,2013-01-08 11:54:00
6:54 AM,26.1,23.0,88,30.16,6.0,South,6.9,-,N/A,,Clear,180,2013-01-08 12:54:00
7:54 AM,27.0,23.0,85,30.17,4.0,South,8.1,-,N/A,,Clear,180,2013-01-08 13:54:00
8:54 AM,28.9,24.1,82,30.19,5.0,South,6.9,-,N/A,,Haze,180,2013-01-08 14:54:00
9:54 AM,32.0,26.1,79,30.19,6.0,South,8.1,-,N/A,,Haze,180,2013-01-08 15:54:00
11:54 AM,-9999,-9999,N/A,30.12,10.0,South,8.1,-,N/A,,Clear,190,2013-01-08 17:54:00
11:59 AM,-9999,-9999,N/A,-9999,-9999.0,North,-9999.0,-,N/A,,Unknown,0,2013-01-08 17:59:00
12:54 PM,42.1,30.0,62,30.10,10.0,South,6.9,-,N/A,,Clear,170,2013-01-08 18:54:00
1:54 PM,44.1,32.0,63,30.10,10.0,South,11.5,-,N/A,,Clear,170,2013-01-08 19:54:00
2:54 PM,45.0,32.0,60,30.08,10.0,South,11.5,-,N/A,,Clear,170,2013-01-08 20:54:00
3:54 PM,43.0,32.0,65,30.07,10.0,South,10.4,-,N/A,,Clear,170,2013-01-08 21:54:00
4:54 PM,41.0,30.9,67,30.07,10.0,South,9.2,-,N/A,,Clear,180,2013-01-08 22:54:00
5:54 PM,37.9,30.9,76,30.08,10.0,South,11.5,-,N/A,,Clear,170,2013-01-08 23:54:00
6:54 PM,39.0,30.0,70,30.08,9.0,South,18.4,-,N/A,,Mostly Cloudy,180,2013-01-09 00:54:00
7:54 PM,37.9,28.9,70,30.08,10.0,South,16.1,24.2,N/A,,Overcast,190,2013-01-09 01:54:00
8:54 PM,37.9,28.9,70,30.09,10.0,South,10.4,-,N/A,,Overcast,190,2013-01-09 02:54:00
9:54 PM,36.0,28.9,76,30.09,10.0,South,10.4,-,N/A,,Mostly Cloudy,190,2013-01-09 03:54:00
10:54 PM,37.4,30.2,75,30.08,10.0,SSW,12.7,-,N/A,,Mostly Cloudy,200,2013-01-09 04:54:00
11:54 PM,37.0,30.9,79,30.08,10.0,SSW,9.2,-,N/A,,Overcast,200,2013-01-09 05:54:00